Regional Weather Roundup
Issued by NWS

Home | Current Version | Previous Version | Text Only | Print | Product List | Glossary On
Versions: 1 2 3 4 5 6 7 8 9 10 11 12 13 14 15 16 17 18 19 20 21 22 23 24 25 26 27 28 29 30 31 32 33 34 35 36 37 38 39 40 41 42 43 44 45 46 47 48 49 50
000
ASUS43 KLMK 201002
RWRKY
KENTUCKY REGIONAL WEATHER ROUNDUP
NATIONAL WEATHER SERVICE LOUISVILLE KY
500 AM EST SAT JAN 20 2018

NOTE "FAIR" INDICATES FEW OR NO CLOUDS BELOW 12,000 FEET
WITH NO SIGNIFICANT WEATHER AND/OR OBSTRUCTIONS TO VISIBILITY.

KYZ001>023-026-027-061>063-070>075-201100-
WESTERN AND SOUTH CENTRAL KENTUCKY

CITY           SKY/WX    TMP DP  RH WIND       PRES   REMARKS
PADUCAH        MOCLDY    38  19  46 SW7       30.10F WCI  33
HENDERSON      FAIR      32  19  58 SW6       30.10R WCI  26
OWENSBORO      MOCLDY    34  22  61 S8        30.11R WCI  27
HOPKINSVILLE   FAIR      42  23  47 SW14      30.12S
BOWLING GREEN  CLOUDY    40  27  59 SW5       30.15R
GLASGOW        NOT AVBL
$$

KYZ024-025-028>034-038-045-046-053-201100-
NORTH CENTRAL KENTUCKY

CITY           SKY/WX    TMP DP  RH WIND       PRES   REMARKS
LOUISVILLE/SDF FAIR      41  24  51 S8        30.09S
LOUISVILLE/LOU FAIR      37  25  61 S7        30.10S WCI  32
FORT KNOX      MOCLDY    38  25  59 SW9       30.08S WCI  32
$$

KYZ035>037-039>044-047>052-055>060-089>105-201100-
NORTHEAST KENTUCKY

CITY           SKY/WX    TMP DP  RH WIND       PRES   REMARKS
LEXINGTON      CLOUDY    41  28  60 S15       30.10S
COVINGTON      FAIR      34  25  69 SW9       30.04R WCI  27
FRANKFORT      FAIR      40  25  55 SW13      30.08S WCI  32
$$

KYZ054-064>069-076>088-106>120-201100-
SOUTHEAST KENTUCKY

CITY           SKY/WX    TMP DP  RH WIND       PRES   REMARKS
JACKSON        CLOUDY    41  29  62 SW6       30.14R
LONDON         CLOUDY    42  29  59 S7        30.16S
SOMERSET       NOT AVBL
MIDDLESBORO    CLOUDY    31  26  83 CALM      30.23R
MONTICELLO     CLOUDY    45  31  58 SW12G21   30.18S
$$





USA.gov is the U.S. government's official web portal to all federal, state and local government web resources and services.